Starlink 35892

operational
NORAD ID: 67115 Int'l Des: 2025-299 Owner: SPXS Country: US Constellation: starlink
LEOCIRCULAR

关于 Starlink 35892

正在加载描述...

实时位置

正在加载3D地球...

即将过境

高度历史

Altitude vs Time

uPlot chart will show altitude changes over time

两行轨道根数

1 67115C 25299P 25349.45881944 .00309860 00000+0 48880-3 0 3498
2 67115 43.0015 301.3144 0007257 266.5942 116.2667 16.02503941 17
Epoch: Dec 15, 2025 • Age: 64 hours

当前状态

高度 271.0 km
速度 7.75 km/s
星下点 43.14°N, 54.45°E
发射日期 Dec 15, 2025
运行时间 2 days
类型 internet

技术详情

分类 Payload
质量 575.00 kg
干质量 530.00 kg
总质量 575.00 kg
长度 0.30 m
直径 4.10 m
跨度 29.00 m
形状 Box + pan
制造商 SPXS
平台类型 Starlink V2MO
阶段状态 In Orbit
所有者/国家 SPXS/US

大型星座

Loading constellations...